Location: Zengebe
(1.4833°N, 32.5167°E)
Time: 23:29:29
(UTC+00:00)

SL-4 R/B - Pass Details

Date: 07 June 2020
Orbit: 428 x 666 km, 51.6° (Epoch: 10 July)

Event Time Altitude Azimuth Distance (km) Brightness Sun altitude
Rises 03:01:14 0° 322° (NW) 2,823 5.5 -10.4°
Reaches altitude 10° 03:03:35 10° 321° (NW) 1,884 4.6 -9.8°
Maximum altitude 03:07:53 78° 235° (SW) 561 1.9 -8.9°
Drops below altitude 10° 03:11:50 10° 149° (SSE) 1,739 4.7 -7.9°
Sets 03:13:56 0° 147° (SSE) 2,586 5.6 -7.5°
